Location: Unspecified
(52.4292°N, 19.3359°E)
Time: 22:44:27
(UTC+02:00)

SR - Pass Details

Date: 03 June 2024
Orbit: 580 x 858 km, 66.7° (Epoch: 12 June)

Event Time Altitude Azimuth Distance (km) Brightness Sun altitude
Rises 15:29:36 0° 200° (SSW) 3,182 ? 46.1°
Reaches altitude 10° 15:32:07 10° 195° (SSW) 2,216 ? 45.7°
Maximum altitude 15:36:56 49° 122° (ESE) 886 ? 45.1°
Drops below altitude 10° 15:41:25 10° 48° (NE) 2,059 ? 44.4°
Sets 15:43:41 0° 43° (NE) 2,934 ? 44.1°
